OBJECT AB, 57191

Orbit data source: Space-Track

You're viewing an Uncataloged Satellite

Recently launched and/or uncataloged satellites may have evolving metadata. Metadata may include but not limited to: Owner, Maufacturer, Bus, Motor, and Mission.

OBJECT AB, 57191 is a satellite in SSO that was launched on Tue, 27 Jun 2023 UTC via a SOYUZ-2-1B launch vehicle from the Vostochny Cosmodrome (VOSTO). Unknown objects in Earth's orbit typically refer to objects detected orbiting the Earth but have not yet been identified or cataloged. These objects could be anything from previously untracked satellites, spent rocket stages, debris from satellite collisions, or even natural meteoroids temporarily captured by Earth's gravity.

Loading next visibility...
Identifier
57191, 2023-091AB
Orbit
SSO
Country
Flag of TBDTBD
Related business
Manufacturer
STTs
Mission
Operational Amateur Technology
Bus & Motor
CUBESAT 3U, Unknown motor
Mass
5.07 kg wet, 5.07 kg dry
Launch date (UTC)
2023-06-27 (3 years ago)
Launch vehicle
SOYUZ-2-1B
Launch site
Vostochny Cosmodrome (VOSTO)
Object type
Unknown
Shape & HBR
Box, 0.2 m
Radar Cross Section
0.035 m², Medium (>0.1 m² and < 1m²)

Expand to show TLE details & history
Last TLE update: 20 hours ago

TLE from 20 hours ago
0 OBJECT AB
1 57191U 23091AB  26207.59363591  .00005026  00000-0  23969-3 0  9991
2 57191  97.5029 265.1288 0014932 358.8130   1.3066 15.19456025169938
Epoch: 2026-07-26T14:14Z
TLE epoch observation values (Epoch: 2026-07-26T14:14:50.142Z)
Latitude
-0.00009°
Longitude
107.13055°
Altitude
500.289 km
Speed
7.62 km/s
True Right ascension
17h 40m 30s
True Declination
0° 00' 00"
Sunlit
Object was in full shadow at epoch
Visualization orbit readout
Latitude
Unknown
Longitude
Unknown
Altitude
Unknown
Speed
Unknown
Apparent Right ascension
Unknown
Apparent Declination
Unknown
Sunlit
N/A
Visualization observer readout
Local Sidereal Time
00:02:06
Azimuth
Unknown
Elevation
Unknown
Doppler factor
Unknown
Orbital elements
Apogee altitude
514.731 km
Perigee altitude
494.177 km
Semi-major axis
6,882.591 km
Eccentricity
0.00149
Inclination
97.5029°
RAAN
265.1288°
Arg. of periapsis
358.813°
True anomaly
1.31051°
Mean anomaly
1.3066°
Eccentric anomaly
1.30855°
Mean motion
3.80115 °/min
Orbital period
94.71 mins
BSTAR
0.00023969
Loading maneuver chart data...
Computing Atmospheric mass density...
Loading historical data...
Loading historical data...
Loading historical data...
Loading historical data...
Loading historical data...
Loading historical data...
Loading historical data...

Documentation

Showing up to 5 results
|